Location: Chuathbaluk
(61.5726°N, 159.2454°W)
Time: 17:06:54
(UTC+00:00)

NOAA 15 - Pass Details

Date: 19 January 2021
Orbit: 798 x 812 km, 98.7° (Epoch: 05 March)

Event Time Altitude Azimuth Distance (km) Brightness Sun altitude
Rises 03:12:55 0° 119° (ESE) 3,310 7.5 -7.2°
Reaches altitude 10° 03:15:28 10° 109° (ESE) 2,385 6.7 -7.5°
Maximum altitude 03:20:01 31° 49° (NE) 1,397 5.3 -8.0°
Drops below altitude 10° 03:24:36 10° 349° (N) 2,403 6.9 -8.4°
Sets 03:27:10 0° 340° (NNW) 3,340 7.7 -8.7°
